Location: Unspecified
(51.0950°N, 12.9690°E)
Time: 17:20:26
(UTC+00:00)

Meteor 1-11 - Pass Details

Date: 28 October 2021
Orbit: 841 x 887 km, 81.2° (Epoch: 02 December)

Event Time Altitude Azimuth Distance (km) Brightness Sun altitude
Rises 16:16:03 0° 349° (N) 3,417 7.3 -4.8°
Reaches altitude 10° 16:18:30 10° 353° (N) 2,482 6.6 -5.2°
Maximum altitude 16:24:04 61° 73° (ENE) 969 4.3 -6.1°
Drops below altitude 10° 16:29:40 10° 154° (SSE) 2,491 6.5 -6.9°
Sets 16:32:08 0° 158° (SSE) 3,431 7.3 -7.3°
